Location: Namasale
(1.5000°N, 32.6167°E)
Time: 16:53:02
(UTC+00:00)

Vanguard 2 Rocket - Pass Details

Date: 20 April 2021
Orbit: 554 x 3326 km, 32.9° (Epoch: 10 May)

Event Time Altitude Azimuth Distance (km) Brightness Sun altitude
Rises 17:11:29 0° 314° (NW) 6,938 12.4 -20.0°
Reaches altitude 10° 17:17:13 10° 322° (NW) 5,581 11.6 -21.4°
Maximum altitude 17:30:59 37° 23° (NNE) 2,758 9.2 -24.7°
Enters shadow 17:34:59 29° 62° (ENE) 2,737 8.9 -25.7°
